| DS18B20 | SHTC3 | ||||||
|---|---|---|---|---|---|---|---|
| ID | Date d/m/Y & Time | data1 สูง | data2 ต่ำ | data3 นอก | temp pcb | hum pcb | Time |
| 2335 | 14/03/2026 08:16:33 | 27.4  | 27.2  | 28.2  | 27.2  | 70.7  | 08:16 |
| 2334 | 14/03/2026 08:11:52 | 27.3  | 27.1  | 28.6  | 27.1  | 70.7  | 08:11 |
| 2333 | 14/03/2026 08:07:11 | 27.2  | 27.1  | 28.5  | 27.1  | 70.7  | 08:07 |
| 2332 | 14/03/2026 08:02:29 | 27.2  | 27.1  | 28.2  | 27.0  | 70.8  | 08:02 |
| 2331 | 14/03/2026 07:57:46 | 27.1  | 27.1  | 28.2  | 27.1  | 71.0  | 07:57 |
| 2330 | 14/03/2026 07:53:04 | 27.0  | 27.0  | 27.9  | 26.9  | 70.9  | 07:53 |
| 2329 | 14/03/2026 07:48:23 | 26.9  | 27.0  | 27.9  | 26.9  | 71.1  | 07:48 |
| 2328 | 14/03/2026 07:43:41 | 26.9  | 26.9  | 27.7  | 26.8  | 71.0  | 07:43 |
| 2327 | 14/03/2026 07:38:59 | 26.9  | 26.9  | 27.5  | 26.7  | 71.1  | 07:38 |
| 2326 | 14/03/2026 07:34:17 | 26.9  | 26.9  | 27.4  | 26.9  | 71.3  | 07:34 |
| 2325 | 14/03/2026 07:29:34 | 26.8  | 26.9  | 27.3  | 26.7  | 71.2  | 07:29 |
| 2324 | 14/03/2026 07:24:53 | 26.8  | 26.9  | 27.0  | 26.8  | 71.3  | 07:24 |
| 2323 | 14/03/2026 07:20:12 | 26.8  | 26.9  | 26.9  | 26.7  | 71.3  | 07:20 |
| 2322 | 14/03/2026 07:15:31 | 26.8  | 26.9  | 26.9  | 26.7  | 71.3  | 07:15 |
| 2321 | 14/03/2026 07:10:49 | 26.8  | 26.9  | 26.9  | 26.8  | 71.3  | 07:10 |
| 2320 | 14/03/2026 07:06:07 | 26.8  | 26.9  | 26.8  | 26.7  | 71.3  | 07:06 |
| 2319 | 14/03/2026 07:01:26 | 26.8  | 26.9  | 26.7  | 26.9  | 71.4  | 07:01 |
| 2318 | 14/03/2026 06:56:44 | 26.8  | 26.9  | 26.7  | 26.8  | 71.3  | 06:56 |
| 2317 | 14/03/2026 06:52:02 | 26.8  | 26.9  | 26.7  | 26.8  | 71.4  | 06:52 |
| 2316 | 14/03/2026 06:47:20 | 26.8  | 26.9  | 26.6  | 26.7  | 71.4  | 06:47 |
| 2315 | 14/03/2026 06:42:39 | 26.8  | 26.9  | 26.6  | 26.9  | 71.5  | 06:42 |
| 2314 | 14/03/2026 06:37:57 | 26.9  | 26.9  | 26.6  | 26.9  | 71.4  | 06:37 |
| 2313 | 14/03/2026 06:33:15 | 26.9  | 26.9  | 26.6  | 26.8  | 71.5  | 06:33 |
| 2312 | 14/03/2026 06:28:34 | 26.9  | 26.9  | 26.6  | 26.9  | 71.4  | 06:28 |